Location: Altentreswitz
(49.5862°N, 12.3693°E)
Time: 23:22:30
(UTC+00:00)

Daily predictions for brighter satellites

Satellite Brightness Start Highest point End
(mag) Time Altitude Azimuth Time Altitude Azimuth Time Altitude Azimuth
CENTAUR R/B 3.8 17:35:35 10° NW 17:42:36 39° NNE 17:50:30 10° E
SL-16 R/B 4.3 17:38:40 10° NW 17:43:36 31° WSW 17:48:31 10° SSW
ATLAS 5 CENTAUR R/B 2.1 17:41:17 10° NW 17:43:50 72° SW 17:50:34 10° SE
Cosmos 1707 3.8 17:41:58 10° NNE 17:45:12 25° ENE 17:48:24 10° SE
Cosmos 1743 3.1 17:43:46 10° SSW 17:47:36 69° W 17:51:26 10° N
ATLAS 3B R/B 4.2 17:42:36 10° NW 17:48:03 25° N 17:53:38 10° ENE
Iridium 4 Rocket 3.5 17:43:31 10° S 17:48:24 69° E 17:53:48 10° N
Sich 1 Rocket 4.4 17:45:55 10° SSE 17:49:50 30° E 17:53:49 10° NNE
SJ-6B 4.2 17:47:13 10° ESE 17:49:54 19° ENE 17:52:35 10° NNE
USA 238 DEB 4.4 17:43:56 10° NW 17:50:44 46° NNE 17:57:49 10° ESE
USA 238 4.4 17:44:02 10° NW 17:50:50 45° NNE 17:57:55 10° ESE
ATLAS CENTAUR R/B 3.4 17:50:23 10° W 17:53:41 25° NW 17:56:52 10° NNE
Cosmos 2263 Rocket 2.2 17:50:53 10° S 17:56:19 59° ESE 18:01:50 10° NE
Meteor 2-9 Rocket 4.3 17:53:35 10° S 17:59:22 65° E 18:05:07 10° NNE
USA 102 4.1 17:54:42 10° SSE 18:00:56 80° ENE 18:04:09 10° NNW
SL-08 RB Rocket 4.2 17:57:08 10° SE 18:01:24 39° ENE 18:05:39 10° N
Cosmos 1844 Rocket 4.0 18:00:52 10° SE 18:04:12 16° E 18:07:33 10° ENE
CZ-2C R/B 3.2 17:59:03 10° SSE 18:04:18 86° WSW 18:09:53 10° NNW
SJ 16-02 2.1 18:00:40 10° SW 18:04:59 58° WNW 18:09:20 10° NNE
Cosmos 990 Rocket 3.9 18:00:09 10° SSW 18:05:17 84° ESE 18:10:28 10° NNE
Cosmos 2227 4.2 18:00:11 10° SSW 18:05:54 74° ESE 18:11:37 10° NNE
Cosmos 1464 Rocket 4.4 18:00:49 10° SSE 18:06:26 39° E 18:12:06 10° NNE
ISS -2.0 18:04:37 10° S 18:06:47 16° SE 18:08:14 13° ESE
Abrixas rocket 2.1 18:06:19 10° WSW 18:09:05 51° SSE 18:11:15 15° E
Cosmos 1943 3.4 18:04:14 10° NNW 18:09:53 75° WSW 18:15:31 10° SSE
Okean 2 Rocket 3.8 18:06:06 10° SSE 18:10:04 31° E 18:14:02 10° NNE
SJ-11-01 4.3 18:05:54 10° SSE 18:10:38 88° WSW 18:15:23 10° NNW
NOSS 8 (F) 4.2 18:08:40 10° SW 18:11:51 80° NW 18:14:53 10° NE
Okean-O 4.3 18:08:52 10° SSW 18:12:59 37° W 18:17:08 10° NNW
Lacrosse 5 rocket 2.3 18:09:45 10° W 18:13:54 49° NNW 18:18:16 10° NE
Ariane Rocket 3.3 18:11:13 10° SE 18:16:04 48° ENE 18:20:57 10° N
Cosmos 1437 3.2 18:14:48 10° NNW 18:17:46 57° W 18:20:42 10° S
NOSS 3-2 (A) 4.2 18:12:06 10° NW 18:19:18 62° NE 18:26:32 14° ESE
Meteor 1-21 4.4 18:14:59 10° NNW 18:20:37 76° W 18:26:11 10° S
NOSS 2-2 (C) 3.7 18:17:50 10° S 18:21:02 34° ESE 18:24:33 10° NE
USA 116 3.8 18:18:45 10° N 18:22:05 68° WNW 18:25:46 10° SSW
Cosmos 1300 Rocket 4.0 18:19:13 10° SSE 18:23:18 40° E 18:27:28 10° NNE
SPOT 3 Rocket 4.4 18:22:58 15° ESE 18:26:25 31° ENE 18:30:54 10° N
MetOp-A 4.4 18:22:45 10° SE 18:27:53 49° ENE 18:33:03 10° N
YAOGAN 1 4.3 18:24:38 10° SSW 18:28:35 35° W 18:32:36 10° NNW
HJ-1C 4.5 18:27:47 10° S 18:30:57 45° W 18:34:09 10° NNW
Cosmos 1898 Rocket 3.9 18:27:18 10° SSW 18:32:26 67° WNW 18:37:37 10° NNE
Cosmos 1867 3.7 18:28:05 10° NW 18:33:35 80° SW 18:38:36 12° SSE
CSL-04 Rocket 4.5 18:28:33 10° S 18:33:50 54° W 18:39:15 10° NNW
Cosmos 1891 Rocket 4.4 18:28:00 10° S 18:34:03 66° E 18:40:04 10° NNE
Cosmos 1536 Rocket 3.8 18:33:32 10° N 18:37:53 50° ENE 18:41:16 16° SSE
USA 234 3.8 18:35:26 10° ENE 18:41:17 34° SE 18:47:07 10° SSW
Cosmos 1626 3.9 18:41:04 10° NNE 18:43:18 17° ENE 18:43:18 17° ENE
Meteor 2-5 Rocket 4.4 18:40:14 10° N 18:45:22 35° ENE 18:48:05 23° ESE
DMSP B5D2-2 4.3 18:40:56 10° NNE 18:46:05 48° E 18:51:10 10° S
CREW DRAGON DEMO-1 DEB 3.2 18:43:50 10° WNW 18:46:49 55° N 18:47:59 31° ENE
CZ-4 R/B 4.4 18:48:04 10° SW 18:51:00 18° W 18:53:57 10° NW
Cosmos 2151 Rocket 3.6 18:46:48 10° S 18:51:09 57° E 18:55:34 10° NNE
USA 186 2.0 18:48:48 13° S 18:51:28 66° W 18:54:42 10° NNW
Cosmos 372 Rocket 3.9 18:46:18 10° SSW 18:51:31 70° ESE 18:56:44 10° NNE
Cosmos 1025 Rocket 3.0 18:47:30 10° N 18:51:55 89° E 18:56:09 11° S
NOSS 3-2 (C) 4.1 18:46:11 10° NW 18:53:25 64° NE 18:58:44 24° ESE
Cosmos 2150 Rocket 4.2 18:48:50 10° S 18:53:58 48° ESE 18:59:12 10° NNE
Nadezhda 4 Rocket 3.9 18:52:30 10° N 18:58:40 79° E 19:04:42 10° SSE
Cosmos 1805 4.1 19:00:43 30° ENE 19:00:43 30° ENE 19:03:40 10° NNE
OBJECT-B 0.8 19:01:22 51° ESE 19:01:54 61° ENE 19:05:07 10° N
Cosmos 1937 Rocket 4.3 18:57:03 10° SW 19:02:11 53° WNW 19:07:19 10° NNE
Cosmos 2082 Rocket 4.0 18:58:45 10° N 19:02:25 17° NE 19:04:43 14° ENE
MOS 1 Rocket 4.0 18:58:40 10° N 19:03:05 51° WNW 19:07:17 10° SW
Cosmos 2034 Rocket 4.0 18:56:53 10° S 19:03:13 74° E 19:09:34 10° NNE
Cosmos 1125 Rocket 3.9 19:00:01 10° S 19:04:58 41° ESE 19:09:56 10° NE
FREGAT/IRIS 2.9 19:05:32 42° SSW 19:06:04 53° W 19:08:39 10° NNW
Exosat Rocket 3.9 19:01:07 10° S 19:06:18 39° ESE 19:10:57 10° NE
Cosmos 1674 2.6 19:04:52 10° N 19:08:43 67° ENE 19:09:42 46° SE
COSMOS 2406 4.2 19:05:27 10° NNW 19:10:31 32° NE 19:12:17 27° E
Meteor 1-24 Rocket 4.1 19:07:25 10° N 19:12:38 43° ENE 19:14:11 35° ESE
SL-14 R/B 4.3 19:13:12 10° N 19:16:10 30° NE 19:16:10 30° NE
ERS-1 Rocket 4.5 19:17:24 20° ENE 19:17:38 20° ENE 19:21:16 10° NNE
NOSS 2-2 (E) 3.7 19:14:47 10° SW 19:18:17 59° NW 19:22:26 10° NE
Resurs 01 Rocket 1.7 19:19:16 48° ESE 19:20:13 59° ENE 19:24:37 10° N
H-2A R/B 4.1 19:16:59 10° SSW 19:21:03 25° W 19:25:14 10° NW
ATLAS 2AS CENTAUR R/B 3.8 19:16:28 10° S 19:24:48 28° E 19:29:44 10° NE
CZ-2C R/B 2.8 19:18:03 10° NNE 19:23:35 78° WNW 19:29:10 10° SSW
SJ-6B 3.8 19:21:47 17° SSW 19:24:17 41° W 19:27:53 10° NNW
Lacrosse 4 Rocket 3.5 19:23:13 10° N 19:25:28 14° NNE 19:25:54 14° NE
Landsat 7 4.4 19:25:47 37° ENE 19:26:00 38° ENE 19:30:24 10° N
KORONAS-FOTON 3.8 19:22:24 10° NNW 19:26:22 81° W 19:27:14 53° S
NOSS 2-2 (D) 3.6 19:23:13 10° SW 19:26:43 62° NW 19:30:48 10° NE
Cosmos 1048 Rocket 4.4 19:26:09 10° NNW 19:31:24 62° WSW 19:34:10 28° S
Cosmos 1766 4.0 19:33:40 40° NE 19:33:40 40° NE 19:36:24 10° NNE
SPOT 1/Viking Rocket 4.1 19:33:46 38° ENE 19:34:04 39° ENE 19:38:51 10° N
CENTAUR R/B 3.1 19:26:21 10° NW 19:34:20 88° NE 19:38:32 36° SE
Cosmos 1844 3.6 19:29:43 10° SSW 19:35:21 64° ESE 19:40:56 10° NE
IGS 5A 4.2 19:37:08 40° NE 19:37:08 40° NE 19:40:25 10° N
Cosmos 1634 Rocket 3.9 19:34:24 36° SSE 19:36:50 61° E 19:42:56 10° NNE
ARIANE 5 R/B 2.8 19:37:43 52° ENE 19:37:43 52° ENE 19:41:44 10° N
SWAS 4.4 19:34:20 10° NNW 19:38:40 78° WSW 19:39:04 70° S
ATLAS 3B R/B 3.2 19:33:51 10° NW 19:40:24 47° NE 19:42:49 35° E
Cosmos 2263 Rocket 4.1 19:35:44 10° WSW 19:40:37 30° NW 19:45:33 10° NNE
Cosmos 1269 Rocket 4.0 19:35:24 10° NNW 19:40:43 65° ENE 19:41:30 57° ESE
Cosmos 2285 Rocket 3.9 19:35:22 10° S 19:41:37 69° ESE 19:47:56 10° NNE
USA 238 DEB 4.1 19:34:58 10° NW 19:42:06 65° SW 19:45:38 33° SSE
MetOp-B 4.1 19:41:10 55° ESE 19:42:10 68° ENE 19:47:30 10° N
USA 238 4.1 19:35:05 10° NW 19:42:12 65° SW 19:45:43 33° SSE
ISS -1.8 19:39:47 10° WSW 19:41:14 23° SW 19:41:14 23° SW
Abrixas rocket 4.3 19:41:25 10° W 19:42:32 21° W 19:42:32 21° W
Cosmos 1844 Rocket 2.6 19:41:43 10° SSW 19:47:18 88° WNW 19:52:56 10° NNE
Spot 2 Rocket 3.6 19:48:07 55° ENE 19:48:11 55° ENE 19:53:07 10° N
Cosmos 1627 Rocket 4.5 19:44:30 10° N 19:50:56 86° W 19:53:34 39° S
Okean 1 Rocket 3.2 19:51:22 56° SW 19:52:14 75° W 19:56:45 10° N
Lacrosse 5 rocket 3.0 19:49:54 10° WNW 19:53:51 31° N 19:55:13 26° NNE
Cosmos 1092 Rocket 4.3 19:50:57 10° NNW 19:57:01 64° W 20:00:14 29° SSW
Cosmos 2026 Rocket 4.1 19:58:14 10° NNW 20:04:35 74° W 20:06:55 41° S
CZ-2C R/B 4.0 20:00:27 10° N 20:04:52 65° WNW 20:05:31 57° WSW
Meteor 2-19 Rocket 4.4 19:59:15 10° N 20:05:21 64° ENE 20:05:39 63° E
SPOT 3 Rocket 4.4 20:03:38 30° SSW 20:05:40 45° W 20:10:37 10° NNW
Cosmos 1833 Rocket 2.9 20:02:12 10° NNW 20:07:46 55° NE 20:07:47 55° NE
Cosmos 2251 Rocket 4.4 20:08:20 10° NNW 20:12:49 39° NE 20:12:49 39° NE
Terra 3.1 20:19:13 30° NNE 20:19:13 30° NNE 20:22:08 10° N
Cosmos 1626 3.8 20:15:28 10° NNW 20:17:51 32° NW 20:17:51 32° NW
Cosmos 2279 Rocket 3.8 20:20:51 78° SE 20:21:08 80° E 20:27:26 10° N
Cosmos 1892 Rocket 4.4 20:16:51 10° NNW 20:20:06 48° NNW 20:20:06 48° NNW
Cosmos 2142 Rocket 4.4 20:21:19 65° SSW 20:22:20 88° W 20:28:37 10° N
USA 234 3.1 20:19:23 16° ENE 20:24:48 89° NNW 20:31:22 10° WSW
SPOT 5 3.6 20:40:09 53° N 20:40:09 53° N 20:44:14 10° NNW
Cosmos 2082 Rocket 2.7 20:42:03 10° NNW 20:46:33 52° N 20:46:33 52° N
COSMOS 2406 3.8 20:49:35 10° NW 20:54:20 51° W 20:54:20 51° W
ERS-1 Rocket 3.9 20:57:24 45° NW 20:57:24 45° NW 21:00:59 10° NNW
Resurs 01 Rocket 3.9 20:56:51 18° W 20:57:05 18° W 21:00:07 10° NW
Cosmos 2098 Rocket 4.3 20:56:43 10° NNW 21:03:50 67° W 21:03:50 67° W
Lacrosse 4 Rocket 3.8 21:00:51 10° NNW 21:02:11 20° NNW 21:02:11 20° NNW
Cosmos 2266 Rocket 4.3 21:00:30 10° NNW 21:05:35 62° NW 21:05:35 62° NW
Cosmos 1655 Rocket 4.5 21:06:46 10° NNW 21:12:30 54° W 21:12:30 54° W
ATLAS 2AS CENTAUR R/B 3.0 21:11:59 63° WSW 21:13:30 83° NW 21:21:24 10° NE
Cosmos 2278 Rocket 3.8 21:22:33 27° NNE 21:22:33 27° NNE 21:24:59 10° NNE
CENTAUR R/B 4.3 21:17:42 10° NW 21:24:35 31° WSW 21:25:44 30° SW
ATLAS 3B R/B 3.3 21:24:37 10° NW 21:30:03 50° W 21:30:03 50° W
Lacrosse 5 rocket 4.1 21:29:30 10° NW 21:30:50 19° NW 21:30:50 19° NW
Terra 4.2 21:58:06 19° NW 21:58:06 19° NW 21:59:47 10° NNW
USA 234 3.9 22:01:17 10° ENE 22:07:33 51° NNW 22:13:50 10° W
Cosmos 2082 Rocket 4.5 22:26:53 10° NW 22:28:23 16° WNW 22:28:23 16° WNW
Cosmos 1943 Rocket 4.4 22:35:45 18° NE 22:35:45 18° NE 22:37:05 10° NE
COSMOS 2455 4.5 22:35:51 28° NNE 22:35:51 28° NNE 22:38:42 10° NNE
Cosmos 2369 Rocket 4.3 22:59:19 20° NE 22:59:19 20° NE 23:00:59 10° NE
CZ-4C R/B 4.0 23:02:00 28° NNE 23:02:00 28° NNE 23:05:07 10° NE
Cosmos 2278 Rocket 4.3 23:04:22 21° NW 23:04:22 21° NW 23:08:29 10° N
ATLAS 2AS CENTAUR R/B 4.2 22:59:08 13° W 23:05:34 37° NNW 23:12:37 10° NE
Cosmos 2227 Rocket 4.2 23:38:24 10° N 23:42:49 23° NE 23:43:29 22° NE
USA 234 4.0 23:43:45 10° E 23:49:59 49° N 23:56:13 10° WNW
